sat.trackr.live / text

‹ back to catalog

STARLINK-3286

NORAD 50171 · 2021-125R

PAYLOAD ACTIVE UNKNOWN

§ Identity

Operator
Country
US
Launch date
2021-12-18
Launch site
AFWTR
Launch vehicle
Mass (kg)
RCS (m²)

Purposes: comms

External: N2YO · Heavens-Above · Gunter

§ Orbital elements

Epoch: 2026-09-04T04:28:23.388384Z

Period
94.01 min
Inclination
53.1602°
Eccentricity
0.0001203
Mean motion
15.31697811 rev/d
Perigee alt
469.9 km
Apogee alt
471.6 km
Semi-major
6,848.9 km
B*
1.9132e-5
RAAN
154.8320°
Arg perigee
94.8244°
Mean anomaly
265.2895°
Rev number
26,372

§ Raw data

STARLINK-32861 50171U 21125R   26247.18638181  .00000229  00000+0  19132-4 0  99942 50171  53.1602 154.8320 0001203  94.8244 265.2895 15.31697811263722

JSON: /api/v1/satellites/50171 · /tle

For live sub-satellite position, see the globe view (requires WebGL).

§ Visibility from observer

Set your observer location to see the next 7 days of passes ≥ 10°. The values pass through the URL so the page stays shareable.

No JS? Fill the form by hand. The geolocation button needs JavaScript.